"startDT [UTC]","vpos","CH4 [ppm]","stdev(CH4) [ppm]","CO2 [ppm]","stdev(CO2) [ppm]","H2O [ppm]","stdev(H2O)","p_LGR [torr]","T_LGR [C]","mt1_LGR [us]","mt2_LGR [us]","T_ECpre [C]","T_EC1 [C]","T_EC2 [C]","p_inlet [hPa]","p_in [hPa]","p_out [hPa]","T_inlet [C]","RH_inlet [%]","dwpt_inlet [C]","T_vent [C]","RH_vent [%]","dwpt_vent [C]","flow_vent [l min-1]","flow_inlet [l min-1]","dwpt_sample [C]","T_room [C]"
2012-02-15 00:00:00,0.0,1.9087,0.0010,401.43,0.39,62.8,32.2,138.13,28.51,24.60,36.32,0.04,-272.74,-272.74,-48,562,-929,22.6,3.0,-24.9,22.7,3.0,-24.5,5.73,2.41,-26.8,26.4
2012-02-15 00:01:00,0.0,1.9093,0.0009,401.57,0.45,55.4,34.5,138.13,28.50,24.60,36.32,0.04,-272.74,-272.74,-49,562,-929,22.5,3.0,-24.8,22.6,3.1,-24.4,5.73,2.39,-27.0,26.1
2012-02-15 00:02:00,0.0,1.9094,0.0010,401.75,0.44,34.4,27.0,138.14,28.47,24.60,36.32,0.04,-272.73,-272.74,-49,562,-929,22.5,3.0,-24.8,22.5,3.1,-24.5,5.73,2.34,-27.2,25.9
2012-02-15 00:03:00,0.0,1.9087,0.0013,401.67,0.42,18.9,24.3,138.15,28.45,24.60,36.32,0.04,-272.74,-272.73,-49,561,-930,22.4,3.0,-24.9,22.4,3.1,-24.6,5.73,2.32,-27.3,25.8
2012-02-15 00:04:00,0.0,1.9074,0.0009,401.62,0.40,20.1,21.6,138.15,28.42,24.60,36.32,0.04,-272.74,-272.74,-49,561,-929,22.3,3.0,-24.9,22.4,3.1,-24.6,5.73,2.33,-27.5,25.4
2012-02-15 00:05:00,0.0,1.9065,0.0009,401.66,0.41,12.8,21.2,138.16,28.39,24.60,36.32,0.04,-272.74,-272.73,-49,559,-930,22.3,3.0,-24.8,22.3,3.1,-24.5,5.73,2.38,-27.5,25.5
2012-02-15 00:06:00,0.0,1.9061,0.0010,401.60,0.43,8.9,18.0,138.16,28.36,24.60,36.32,0.04,-272.74,-272.73,-48,561,-929,22.3,3.0,-24.9,22.3,3.1,-24.5,5.73,2.40,-27.6,25.9
2012-02-15 00:07:00,0.0,1.9058,0.0009,401.47,0.46,14.7,20.8,138.16,28.33,24.60,36.32,0.04,-272.74,-272.73,-49,560,-930,22.3,3.0,-24.9,22.3,3.1,-24.5,5.73,2.44,-27.6,26.2
2012-02-15 00:08:00,0.0,1.9061,0.0010,401.54,0.41,15.0,20.5,138.15,28.31,24.60,36.32,0.04,-272.74,-272.74,-48,560,-926,22.3,3.0,-24.9,22.3,3.1,-24.6,5.73,2.47,-27.5,26.4
2012-02-15 00:09:00,0.0,1.9061,0.0011,401.54,0.43,20.7,26.1,138.15,28.30,24.60,36.32,0.04,-272.73,-272.74,-49,560,-929,22.3,3.0,-24.9,22.3,3.1,-24.6,5.73,2.34,-27.4,26.6
2012-02-15 00:10:00,0.0,1.9069,0.0008,401.56,0.41,25.8,21.2,138.14,28.29,24.60,36.31,0.04,-272.74,-272.74,-49,560,-929,22.3,3.0,-24.9,22.4,3.1,-24.5,5.73,2.31,-27.3,26.7
2012-02-15 00:11:00,0.0,1.9069,0.0009,401.49,0.42,38.9,28.3,138.14,28.29,24.60,36.32,0.04,-272.74,-272.74,-49,560,-929,22.3,3.0,-24.9,22.4,3.1,-24.6,5.73,2.50,-27.2,26.8
2012-02-15 00:12:00,0.0,1.9069,0.0009,401.46,0.43,41.2,31.3,138.13,28.29,24.60,36.31,0.04,-272.74,-272.73,-49,560,-929,22.3,3.1,-24.7,22.4,3.1,-24.4,5.73,2.36,-27.2,27.0
2012-02-15 00:13:00,0.0,1.9077,0.0008,401.20,0.38,42.6,30.1,138.13,28.30,24.59,36.32,0.04,-272.73,-272.74,-48,560,-929,22.3,3.1,-24.5,22.4,3.2,-24.2,5.73,2.31,-27.1,27.0
2012-02-15 00:14:00,0.0,1.9075,0.0010,401.38,0.35,55.5,33.2,138.13,28.31,24.60,36.32,0.04,-272.74,-272.74,-49,560,-928,22.4,3.2,-24.3,22.4,3.2,-24.0,5.73,2.49,-27.0,27.1
2012-02-15 00:15:00,0.0,1.9080,0.0010,401.31,0.40,52.4,31.2,138.13,28.32,24.60,36.32,0.04,-272.74,-272.74,-49,560,-929,22.4,3.2,-24.3,22.5,3.3,-23.9,5.73,2.34,-26.9,27.2
2012-02-15 00:16:00,0.0,1.9084,0.0009,401.41,0.42,55.0,27.7,138.12,28.33,24.60,36.32,0.04,-272.73,-272.73,-48,560,-929,22.4,3.1,-24.3,22.5,3.2,-24.0,5.73,2.32,-26.9,27.2
2012-02-15 00:17:00,0.0,1.9082,0.0009,401.37,0.43,66.1,28.8,138.12,28.34,24.60,36.32,0.04,-272.74,-272.74,-48,560,-929,22.4,3.1,-24.4,22.5,3.2,-24.1,5.73,2.50,-26.8,27.3
2012-02-15 00:18:00,0.0,1.9082,0.0010,401.38,0.45,70.1,29.4,138.12,28.35,24.60,36.32,0.04,-272.74,-272.74,-49,560,-929,22.4,3.1,-24.4,22.5,3.2,-24.1,5.73,2.31,-26.8,27.3
2012-02-15 00:19:00,0.0,1.9077,0.0010,401.28,0.44,78.0,33.5,138.12,28.36,24.60,36.32,0.04,-272.73,-272.74,-49,560,-929,22.5,3.1,-24.3,22.5,3.2,-24.0,5.73,2.36,-26.7,27.3
2012-02-15 00:20:00,0.0,1.9079,0.0008,401.35,0.38,85.5,35.2,138.12,28.37,24.60,36.32,0.04,-272.74,-272.74,-49,560,-929,22.5,3.1,-24.3,22.6,3.2,-24.0,5.73,2.49,-26.6,27.3
2012-02-15 00:21:00,0.0,1.9087,0.0010,401.27,0.41,87.0,28.8,138.12,28.39,24.59,36.32,0.04,-272.74,-272.74,-49,560,-929,22.4,3.1,-24.5,22.6,3.2,-24.1,5.73,2.28,-26.6,27.3
2012-02-15 00:22:00,0.0,1.9082,0.0009,401.29,0.37,92.6,26.6,138.11,28.40,24.60,36.32,0.04,-272.74,-272.74,-49,561,-929,22.5,3.1,-24.4,22.6,3.2,-24.0,5.73,2.40,-26.5,27.3
2012-02-15 00:23:00,0.0,1.9084,0.0009,401.35,0.37,98.7,25.8,138.11,28.41,24.60,36.32,0.04,-272.73,-272.73,-47,557,-926,22.5,3.1,-24.4,22.7,3.2,-24.0,5.73,2.45,-26.5,27.3
2012-02-15 00:24:00,0.0,1.9081,0.0008,401.45,0.32,104.1,31.1,138.11,28.43,24.60,36.33,0.04,-272.73,-272.74,-49,560,-929,22.6,3.1,-24.3,22.7,3.2,-23.8,5.73,2.26,-26.4,27.4
2012-02-15 00:25:00,0.0,1.9081,0.0009,401.34,0.38,100.1,32.3,138.11,28.44,24.60,36.33,0.04,-272.74,-272.74,-49,561,-929,22.6,3.2,-24.2,22.7,3.3,-23.8,5.73,2.47,-26.4,27.5
2012-02-15 00:26:00,0.0,1.9089,0.0010,401.40,0.43,110.2,32.6,138.11,28.45,24.60,36.32,0.04,-272.74,-272.74,-48,561,-929,22.7,3.1,-24.2,22.8,3.2,-23.8,5.73,2.38,-26.3,27.5
2012-02-15 00:27:00,0.0,1.9085,0.0009,401.43,0.42,111.7,36.5,138.11,28.47,24.60,36.33,0.04,-272.73,-272.74,-48,561,-928,22.7,3.1,-24.2,22.8,3.2,-23.8,5.73,2.30,-26.3,27.6
2012-02-15 00:28:00,0.0,1.9084,0.0009,401.31,0.40,116.7,29.7,138.11,28.48,24.60,36.33,0.04,-272.74,-272.74,-49,561,-928,22.7,3.1,-24.2,22.8,3.2,-23.8,5.73,2.50,-26.2,27.7
2012-02-15 00:29:00,0.0,1.9090,0.0010,401.57,0.35,118.0,29.8,138.10,28.49,24.60,36.32,0.04,-272.74,-272.74,-48,562,-929,22.7,3.1,-24.3,22.8,3.2,-23.9,5.73,2.29,-26.2,27.7
2012-02-15 00:30:00,0.0,1.9088,0.0009,401.68,0.39,118.9,27.0,138.10,28.51,24.60,36.32,0.04,-272.74,-272.74,-49,561,-929,22.7,3.1,-24.4,22.9,3.2,-24.0,5.73,2.39,-26.1,27.8
2012-02-15 00:31:00,0.0,1.9093,0.0008,401.45,0.37,112.1,33.6,138.11,28.52,24.60,36.33,0.04,-272.74,-272.74,-49,562,-929,22.8,3.0,-24.5,22.9,3.1,-24.0,5.73,2.46,-26.1,27.2
2012-02-15 00:32:00,0.0,1.9096,0.0009,401.55,0.37,117.7,34.3,138.11,28.53,24.60,36.32,0.04,-272.73,-272.74,-49,562,-929,22.8,3.0,-24.5,22.9,3.1,-24.1,5.73,2.40,-26.3,27.0
2012-02-15 00:33:00,0.0,1.9093,0.0009,401.41,0.36,92.9,33.0,138.12,28.52,24.60,36.33,0.04,-272.74,-272.74,-49,562,-929,22.7,3.0,-24.5,22.8,3.1,-24.1,5.73,2.39,-26.5,26.5
2012-02-15 00:34:00,0.0,1.9095,0.0008,401.53,0.43,80.9,27.3,138.13,28.51,24.60,36.33,0.04,-272.74,-272.74,-49,562,-929,22.7,3.0,-24.6,22.8,3.1,-24.2,5.73,2.37,-26.6,26.3
2012-02-15 00:35:00,0.0,1.9097,0.0008,401.68,0.41,64.1,33.8,138.13,28.50,24.60,36.32,0.04,-272.74,-272.74,-49,562,-930,22.7,3.0,-24.7,22.7,3.1,-24.3,5.73,2.33,-26.8,26.2
2012-02-15 00:36:00,0.0,1.9095,0.0009,401.69,0.37,42.9,31.0,138.14,28.48,24.60,36.32,0.04,-272.73,-272.74,-49,562,-930,22.6,3.0,-24.7,22.6,3.1,-24.3,5.73,2.31,-27.0,26.0
2012-02-15 00:37:00,0.0,1.9092,0.0009,401.76,0.37,37.0,32.0,138.15,28.45,24.60,36.32,0.04,-272.74,-272.74,-50,562,-929,22.5,3.0,-24.6,22.5,3.1,-24.3,5.73,2.35,-27.1,25.8
2012-02-15 00:38:00,0.0,1.9083,0.0009,401.83,0.45,20.0,25.2,138.15,28.42,24.60,36.32,0.04,-272.74,-272.74,-49,561,-930,22.5,3.1,-24.6,22.5,3.1,-24.3,5.73,2.43,-27.3,25.7
2012-02-15 00:39:00,0.0,1.9071,0.0009,401.68,0.43,19.2,21.8,138.16,28.39,24.60,36.32,0.04,-272.73,-272.74,-49,561,-929,22.4,3.1,-24.7,22.4,3.1,-24.4,5.73,2.47,-27.4,25.5
2012-02-15 00:40:00,0.0,1.9064,0.0010,401.57,0.36,10.9,19.9,138.16,28.36,24.60,36.32,0.04,-272.74,-272.74,-51,561,-930,22.3,3.1,-24.7,22.3,3.1,-24.4,5.73,2.38,-27.5,25.8
2012-02-15 00:41:00,0.0,1.9062,0.0010,401.67,0.39,16.4,24.8,138.16,28.33,24.60,36.32,0.04,-272.74,-272.74,-50,560,-929,22.3,3.1,-24.7,22.3,3.2,-24.4,5.73,2.31,-27.5,26.1
2012-02-15 00:42:00,0.0,1.9066,0.0012,401.70,0.40,15.1,18.4,138.15,28.31,24.60,36.32,0.04,-272.74,-272.74,-50,561,-929,22.3,3.1,-24.7,22.3,3.2,-24.4,5.73,2.36,-27.4,26.3
2012-02-15 00:43:00,0.0,1.9066,0.0009,401.64,0.41,21.6,27.0,138.15,28.30,24.60,36.32,0.04,-272.74,-272.74,-46,561,-927,22.3,3.1,-24.7,22.3,3.1,-24.4,5.73,2.48,-27.4,26.5
2012-02-15 00:44:00,0.0,1.9070,0.0011,401.63,0.41,26.9,26.6,138.14,28.29,24.60,36.32,0.04,-272.74,-272.74,-49,560,-928,22.3,3.1,-24.6,22.4,3.2,-24.3,5.73,2.37,-27.3,26.7
2012-02-15 00:45:00,0.0,1.9073,0.0010,401.46,0.44,29.6,28.5,138.14,28.29,24.60,36.32,0.04,-272.74,-272.74,-50,560,-928,22.3,3.1,-24.6,22.4,3.2,-24.3,5.73,2.29,-27.2,26.8
2012-02-15 00:46:00,0.0,1.9080,0.0008,401.44,0.38,37.7,30.9,138.14,28.29,24.60,36.32,0.04,-272.74,-272.74,-50,559,-928,22.3,3.1,-24.6,22.4,3.2,-24.2,5.73,2.48,-27.1,26.9
2012-02-15 00:47:00,0.0,1.9081,0.0009,401.29,0.38,39.8,31.8,138.13,28.29,24.60,36.33,0.04,-272.73,-272.75,-49,560,-928,22.3,3.1,-24.7,22.4,3.2,-24.3,5.73,2.36,-27.1,27.0
2012-02-15 00:48:00,0.0,1.9085,0.0009,401.43,0.43,44.3,33.1,138.13,28.30,24.60,36.32,0.04,-272.74,-272.73,-49,560,-928,22.3,3.1,-24.6,22.4,3.1,-24.3,5.73,2.30,-27.0,27.0
2012-02-15 00:49:00,0.0,1.9087,0.0009,401.27,0.47,47.9,29.6,138.13,28.31,24.60,36.33,0.04,-272.74,-272.74,-50,560,-928,22.3,3.0,-24.8,22.4,3.1,-24.4,5.73,2.50,-26.9,27.1
2012-02-15 00:50:00,0.0,1.9083,0.0006,401.41,0.38,60.1,27.7,138.12,28.32,24.60,36.32,0.04,-272.73,-272.74,-49,560,-928,22.3,3.0,-24.8,22.5,3.1,-24.4,5.73,2.29,-26.8,27.2
2012-02-15 00:51:00,0.0,1.9088,0.0010,401.33,0.40,74.6,31.5,138.12,28.33,24.60,36.32,0.04,-272.74,-272.74,-49,560,-928,22.3,3.0,-24.8,22.5,3.1,-24.4,5.73,2.38,-26.8,27.2
2012-02-15 00:52:00,0.0,1.9084,0.0008,401.50,0.38,68.9,34.3,138.12,28.34,24.60,36.32,0.04,-272.73,-272.74,-50,560,-928,22.3,3.0,-24.8,22.5,3.1,-24.4,5.73,2.46,-26.7,27.2
2012-02-15 00:53:00,0.0,1.9083,0.0010,401.36,0.40,76.0,32.6,138.12,28.35,24.60,36.32,0.04,-272.74,-272.73,-49,559,-928,22.4,3.0,-24.8,22.5,3.1,-24.4,5.73,2.26,-26.7,27.2
2012-02-15 00:54:00,0.0,1.9083,0.0009,401.30,0.39,80.2,33.6,138.12,28.36,24.60,36.33,0.04,-272.74,-272.74,-49,560,-928,22.4,3.0,-24.8,22.5,3.1,-24.4,5.73,2.47,-26.6,27.2
2012-02-15 00:55:00,0.0,1.9084,0.0008,401.48,0.36,94.8,31.6,138.12,28.37,24.60,36.31,0.04,-272.74,-272.74,-49,560,-928,22.4,3.1,-24.7,22.6,3.1,-24.3,5.73,2.35,-26.6,27.3
2012-02-15 00:56:00,0.0,1.9080,0.0007,401.25,0.49,86.4,28.7,138.11,28.38,24.60,36.32,0.04,-272.74,-272.73,-49,560,-928,22.4,3.0,-24.8,22.5,3.1,-24.3,5.73,2.33,-26.5,27.3
2012-02-15 00:57:00,0.0,1.9084,0.0009,401.50,0.38,106.9,31.7,138.11,28.39,24.60,36.32,0.04,-272.74,-272.73,-49,560,-928,22.4,3.0,-24.8,22.6,3.1,-24.3,5.73,2.49,-26.5,27.3
2012-02-15 00:58:00,0.0,1.9081,0.0009,401.37,0.43,106.7,30.7,138.11,28.41,24.60,36.33,0.04,-272.74,-272.74,-50,561,-928,22.4,3.0,-24.8,22.6,3.1,-24.3,5.73,2.27,-26.4,27.4
2012-02-15 00:59:00,0.0,1.9082,0.0009,401.50,0.37,101.5,37.0,138.11,28.42,24.60,36.32,0.04,-272.74,-272.74,-50,559,-928,22.5,3.0,-24.7,22.6,3.1,-24.3,5.73,2.45,-26.4,27.4
2012-02-15 01:00:00,0.0,1.9088,0.0008,401.53,0.42,102.6,31.7,138.11,28.44,24.60,36.32,0.04,-272.73,-272.73,-49,560,-928,22.5,3.0,-24.7,22.6,3.1,-24.3,5.73,2.37,-26.3,27.5
2012-02-15 01:01:00,0.0,1.9088,0.0009,401.57,0.35,119.9,34.7,138.11,28.45,24.60,36.32,0.04,-272.73,-272.74,-50,561,-928,22.5,3.0,-24.8,22.7,3.1,-24.4,5.73,2.32,-26.3,27.5
2012-02-15 01:02:00,0.0,1.9088,0.0010,401.54,0.41,121.1,32.0,138.11,28.46,24.60,36.33,0.04,-272.74,-272.74,-49,560,-928,22.5,3.0,-24.8,22.7,3.1,-24.3,5.73,2.48,-26.3,27.6
2012-02-15 01:03:00,0.0,1.9086,0.0009,401.69,0.39,113.4,32.7,138.11,28.48,24.60,36.32,0.04,-272.73,-272.73,-48,560,-928,22.5,3.0,-24.8,22.7,3.1,-24.4,5.73,2.26,-26.2,27.6
2012-02-15 01:04:00,0.0,1.9091,0.0008,401.58,0.44,120.4,37.2,138.11,28.49,24.60,36.33,0.04,-272.74,-272.74,-50,561,-928,22.6,3.0,-24.7,22.7,3.1,-24.3,5.73,2.46,-26.2,27.7
2012-02-15 01:05:00,0.0,1.9091,0.0009,401.53,0.37,124.4,30.7,138.10,28.50,24.60,36.33,0.04,-272.74,-272.74,-49,561,-928,22.6,3.0,-24.7,22.8,3.1,-24.2,5.73,2.34,-26.1,27.8
2012-02-15 01:06:00,0.0,1.9093,0.0009,401.48,0.45,122.6,27.3,138.11,28.51,24.60,36.33,0.04,-272.73,-272.74,-49,561,-928,22.6,3.0,-24.8,22.8,3.1,-24.4,5.73,2.30,-26.2,27.4
2012-02-15 01:07:00,0.0,1.9090,0.0009,401.42,0.37,111.0,33.7,138.11,28.51,24.60,36.33,0.04,-272.74,-272.73,-49,562,-928,22.6,3.0,-24.8,22.7,3.1,-24.4,5.73,2.39,-26.4,26.9
2012-02-15 01:08:00,0.0,1.9090,0.0009,401.49,0.45,94.3,31.2,138.12,28.51,24.60,36.32,0.04,-272.74,-272.74,-50,562,-929,22.5,3.0,-24.8,22.7,3.1,-24.3,5.73,2.37,-26.6,26.7
2012-02-15 01:09:00,0.0,1.9094,0.0009,401.51,0.44,75.5,31.2,138.13,28.50,24.60,36.33,0.04,-272.74,-272.74,-50,561,-929,22.5,3.0,-24.8,22.6,3.1,-24.4,5.73,2.37,-26.7,26.2
2012-02-15 01:10:00,0.0,1.9099,0.0008,401.60,0.39,55.9,36.4,138.14,28.48,24.60,36.33,0.04,-272.73,-272.74,-50,561,-928,22.4,3.0,-24.9,22.5,3.1,-24.5,5.73,2.43,-27.0,25.9
2012-02-15 01:11:00,0.0,1.9095,0.0010,401.81,0.43,41.2,23.8,138.14,28.46,24.60,36.31,0.04,-272.74,-272.73,-49,561,-929,22.3,3.0,-24.9,22.4,3.1,-24.5,5.73,2.48,-27.2,25.7
2012-02-15 01:12:00,0.0,1.9090,0.0011,401.71,0.35,24.3,29.3,138.15,28.43,24.60,36.32,0.04,-272.74,-272.74,-49,561,-928,22.3,3.0,-24.8,22.3,3.1,-24.5,5.73,2.45,-27.4,25.5
2012-02-15 01:13:00,0.0,1.9079,0.0011,401.69,0.40,17.3,21.2,138.16,28.39,24.60,36.32,0.04,-272.74,-272.74,-52,562,-929,22.2,3.1,-24.8,22.2,3.1,-24.5,5.73,2.35,-27.5,25.3
2012-02-15 01:14:00,0.0,1.9070,0.0009,401.58,0.33,13.6,21.9,138.16,28.36,24.60,36.33,0.04,-272.73,-272.73,-50,560,-928,22.1,3.0,-24.9,22.2,3.1,-24.6,5.73,2.29,-27.7,25.2
2012-02-15 01:15:00,0.0,1.9063,0.0008,401.65,0.43,11.8,18.7,138.16,28.32,24.60,36.32,0.04,-272.73,-272.74,-51,560,-928,22.1,3.0,-25.0,22.1,3.1,-24.7,5.73,2.41,-27.8,25.6
2012-02-15 01:16:00,0.0,1.9060,0.0009,401.58,0.39,8.8,20.4,138.16,28.30,24.60,36.32,0.04,-272.73,-272.74,-49,559,-931,22.1,3.0,-25.0,22.1,3.1,-24.7,5.73,2.44,-27.8,25.9
2012-02-15 01:17:00,0.0,1.9065,0.0011,401.64,0.43,12.5,19.2,138.16,28.28,24.60,36.32,0.04,-272.73,-272.73,-50,559,-928,22.1,3.0,-25.0,22.1,3.1,-24.7,5.73,2.32,-27.7,26.1
2012-02-15 01:18:00,0.0,1.9068,0.0009,401.63,0.46,14.5,19.9,138.15,28.26,24.60,36.32,0.04,-272.73,-272.74,-50,559,-928,22.1,3.0,-25.0,22.1,3.1,-24.7,5.73,2.31,-27.6,26.3
2012-02-15 01:19:00,0.0,1.9071,0.0009,401.54,0.39,17.1,24.0,138.15,28.26,24.60,36.32,0.04,-272.74,-272.73,-50,559,-928,22.0,3.0,-25.1,22.1,3.1,-24.7,5.73,2.48,-27.6,26.4
2012-02-15 01:20:00,0.0,1.9078,0.0010,401.55,0.45,21.7,27.4,138.14,28.25,24.59,36.32,0.04,-272.74,-272.74,-49,559,-928,22.0,3.0,-25.1,22.1,3.1,-24.8,5.73,2.38,-27.4,26.6
2012-02-15 01:21:00,0.0,1.9081,0.0010,401.48,0.41,37.4,32.8,138.14,28.25,24.60,36.32,0.04,-272.74,-272.74,-49,559,-928,22.1,3.0,-25.0,22.2,3.1,-24.7,5.73,2.28,-27.3,26.6
2012-02-15 01:22:00,0.0,1.9080,0.0009,401.53,0.44,39.8,31.9,138.14,28.25,24.60,36.32,0.04,-272.74,-272.74,-50,558,-928,22.1,3.0,-25.0,22.2,3.1,-24.6,5.73,2.48,-27.3,26.7
2012-02-15 01:23:00,0.0,1.9084,0.0009,401.54,0.35,44.7,33.2,138.13,28.26,24.60,36.32,0.04,-272.72,-272.73,-49,559,-928,22.1,3.0,-25.0,22.2,3.1,-24.5,5.73,2.37,-27.2,26.8
2012-02-15 01:24:00,0.0,1.9085,0.0009,401.51,0.47,45.4,29.3,138.13,28.26,24.60,36.32,0.04,-272.73,-272.74,-49,558,-927,22.1,3.0,-25.0,22.2,3.1,-24.6,5.73,2.29,-27.2,26.8
2012-02-15 01:25:00,0.0,1.9086,0.0009,401.52,0.39,45.8,28.5,138.13,28.27,24.60,36.32,0.04,-272.76,-272.73,-49,558,-927,22.1,3.0,-25.1,22.2,3.1,-24.6,5.73,2.50,-27.1,26.9
2012-02-15 01:26:00,0.0,1.9088,0.0010,401.47,0.41,62.6,35.8,138.13,28.28,24.60,36.32,0.04,-272.73,-272.74,-50,559,-927,22.1,3.0,-24.9,22.3,3.1,-24.5,5.73,2.34,-27.0,26.9
2012-02-15 01:27:00,0.0,1.9090,0.0008,401.54,0.42,62.7,34.5,138.12,28.29,24.60,36.32,0.04,-272.74,-272.73,-49,559,-927,22.1,3.0,-25.0,22.3,3.1,-24.5,5.73,2.32,-27.0,27.0
2012-02-15 01:28:00,0.0,1.9092,0.0008,401.49,0.41,73.4,34.2,138.12,28.30,24.60,36.32,0.04,-272.74,-272.74,-49,558,-927,22.1,3.0,-24.9,22.3,3.1,-24.5,5.73,2.49,-26.9,27.0
2012-02-15 01:29:00,0.0,1.9091,0.0011,401.47,0.39,70.4,33.0,138.12,28.31,24.60,36.32,0.04,-272.73,-272.74,-50,558,-927,22.1,3.0,-25.0,22.3,3.1,-24.6,5.73,2.31,-26.8,27.0
2012-02-15 01:30:00,0.0,1.9092,0.0009,401.58,0.41,74.1,31.6,138.12,28.31,24.60,36.31,0.04,-272.74,-272.74,-49,559,-927,22.1,3.0,-25.0,22.3,3.1,-24.6,5.73,2.36,-26.8,27.0
2012-02-15 01:31:00,0.0,1.9095,0.0009,401.54,0.40,74.0,27.4,138.12,28.32,24.60,36.32,0.04,-272.73,-272.74,-49,558,-927,22.1,3.0,-25.3,22.3,3.0,-24.8,5.73,2.48,-26.8,27.0
2012-02-15 01:32:00,0.0,1.9096,0.0008,401.44,0.35,84.5,30.1,138.12,28.33,24.60,36.32,0.04,-272.73,-272.74,-50,559,-927,22.1,2.9,-25.4,22.3,3.0,-24.9,5.73,2.28,-26.8,27.1
2012-02-15 01:33:00,0.0,1.9095,0.0008,401.62,0.43,82.8,31.9,138.12,28.34,24.60,36.32,0.04,-272.73,-272.74,-49,559,-928,22.1,2.9,-25.4,22.3,3.0,-24.9,5.73,2.41,-26.7,27.1
2012-02-15 01:34:00,0.0,1.9094,0.0010,401.59,0.46,92.7,31.8,138.12,28.35,24.60,36.32,0.04,-272.72,-272.74,-48,559,-928,22.1,2.9,-25.5,22.3,3.0,-25.0,5.73,2.46,-26.7,27.2
2012-02-15 01:35:00,0.0,1.9095,0.0010,401.55,0.42,97.0,31.8,138.12,28.36,24.60,36.32,0.04,-272.74,-272.73,-49,558,-928,22.1,2.9,-25.5,22.3,3.0,-25.1,5.73,2.27,-26.6,27.2
2012-02-15 01:36:00,0.0,1.9093,0.0010,401.51,0.40,101.1,31.5,138.12,28.37,24.60,36.32,0.04,-272.74,-272.74,-49,559,-928,22.1,2.9,-25.3,22.3,3.0,-24.9,5.73,2.47,-26.6,27.3
2012-02-15 01:37:00,0.0,1.9096,0.0012,401.47,0.40,99.3,31.1,138.11,28.38,24.60,36.32,0.04,-272.74,-272.74,-49,559,-927,22.1,2.9,-25.3,22.4,3.0,-24.8,5.73,2.37,-26.6,27.3
2012-02-15 01:38:00,0.0,1.9094,0.0010,401.55,0.37,98.6,30.9,138.11,28.39,24.60,36.32,0.04,-272.73,-272.73,-49,559,-927,22.1,2.9,-25.4,22.4,3.0,-24.9,5.73,2.31,-26.5,27.3
2012-02-15 01:39:00,0.0,1.9091,0.0008,401.58,0.38,104.0,40.9,138.11,28.40,24.60,36.32,0.04,-272.74,-272.73,-49,559,-928,22.2,2.9,-25.3,22.4,3.0,-24.9,5.73,2.50,-26.5,27.4
2012-02-15 01:40:00,0.0,1.9094,0.0010,401.58,0.40,94.0,39.7,138.11,28.41,24.60,36.32,0.04,-272.73,-272.73,-49,559,-928,22.1,2.9,-25.3,22.4,3.0,-24.9,5.73,2.29,-26.5,27.4
2012-02-15 01:41:00,0.0,1.9121,0.0000,401.33,0.00,93.9,0.0,138.12,28.42,24.60,36.33,0.04,-272.73,-272.74,-51,559,-928,22.1,2.9,-25.4,22.3,3.0,-24.9,5.73,2.37,-26.6,27.2
2012-02-15 01:42:00,0.0,1.9106,0.0011,401.52,0.43,103.4,41.2,138.12,28.42,24.60,36.33,0.04,-272.74,-272.74,-50,560,-927,22.0,2.9,-25.5,22.1,3.0,-25.0,5.73,2.48,-26.8,27.0
2012-02-15 01:43:00,0.0,1.9100,0.0009,401.61,0.40,88.4,30.8,138.12,28.41,24.60,36.33,0.04,-272.73,-272.74,-48,558,-927,21.9,2.9,-25.5,22.0,3.0,-25.0,5.73,2.36,-27.0,26.9
2012-02-15 01:44:00,0.0,1.9102,0.0009,401.67,0.38,72.5,35.8,138.12,28.41,24.60,36.33,0.04,-272.73,-272.74,-49,559,-928,21.8,2.9,-25.6,21.9,3.0,-25.1,5.73,2.30,-27.0,27.0
2012-02-15 01:45:00,0.0,1.9099,0.0008,401.60,0.45,74.7,29.7,138.12,28.41,24.60,36.32,0.04,-272.73,-272.74,-48,558,-927,21.8,2.9,-25.5,21.9,3.0,-25.1,5.73,2.46,-27.0,27.1
2012-02-15 01:46:00,0.0,1.9094,0.0008,401.55,0.39,86.7,32.7,138.12,28.40,24.61,36.33,0.04,-272.74,-272.74,-49,557,-928,21.9,3.0,-25.3,22.0,3.1,-24.9,5.73,2.43,-26.9,27.1
2012-02-15 01:47:00,0.0,1.9100,0.0011,401.63,0.41,73.5,34.1,138.12,28.40,24.60,36.33,0.04,-272.74,-272.74,-49,558,-927,21.9,3.0,-25.2,22.0,3.1,-24.8,5.73,2.27,-26.9,27.2
2012-02-15 01:48:00,0.0,1.9100,0.0008,401.59,0.39,85.2,31.5,138.12,28.41,24.60,36.33,0.04,-272.74,-272.74,-48,558,-928,21.9,3.0,-25.3,22.1,3.1,-24.9,5.73,2.47,-26.8,27.3
2012-02-15 01:49:00,0.0,1.9101,0.0010,401.66,0.44,92.9,28.1,138.12,28.41,24.60,36.32,0.04,-272.74,-272.73,-49,558,-927,21.9,3.0,-25.3,22.1,3.1,-24.8,5.73,2.39,-26.8,27.3
2012-02-15 01:50:00,0.0,1.9098,0.0008,401.58,0.35,95.7,31.1,138.12,28.41,24.60,36.32,0.04,-272.73,-272.74,-49,558,-928,22.0,3.0,-25.2,22.1,3.1,-24.8,5.73,2.29,-26.7,27.3
2012-02-15 01:51:00,0.0,1.9096,0.0009,401.42,0.41,106.3,33.6,138.12,28.42,24.60,36.34,0.04,-272.74,-272.73,-48,559,-927,22.0,3.0,-25.1,22.2,3.1,-24.7,5.73,2.49,-26.7,27.3
2012-02-15 01:52:00,0.0,1.9093,0.0009,401.58,0.40,99.7,33.5,138.11,28.42,24.61,36.33,0.04,-272.74,-272.73,-48,558,-928,22.1,3.0,-25.1,22.2,3.1,-24.6,5.73,2.34,-26.6,27.4
2012-02-15 01:53:00,0.0,1.9097,0.0011,401.68,0.36,98.0,32.0,138.11,28.43,24.60,36.33,0.04,-272.73,-272.74,-50,558,-929,22.1,3.0,-25.0,22.2,3.1,-24.6,5.73,2.32,-26.6,27.4
2012-02-15 01:54:00,0.0,1.9098,0.0009,401.69,0.39,114.9,37.5,138.11,28.44,24.60,36.32,0.04,-272.73,-272.74,-49,559,-928,22.1,3.0,-25.0,22.3,3.1,-24.6,5.73,2.50,-26.5,27.4
2012-02-15 01:55:00,0.0,1.9097,0.0009,401.61,0.42,104.1,32.8,138.11,28.45,24.60,36.32,0.04,-272.74,-272.74,-48,559,-928,22.1,3.0,-25.2,22.3,3.1,-24.7,5.73,2.30,-26.5,27.5
2012-02-15 01:56:00,0.0,1.9098,0.0008,401.44,0.37,111.6,29.1,138.11,28.45,24.60,36.34,0.04,-272.74,-272.74,-49,559,-928,22.2,2.9,-25.3,22.3,3.0,-24.8,5.73,2.38,-26.5,27.5
2012-02-15 01:57:00,0.0,1.9101,0.0010,401.55,0.39,111.4,34.2,138.11,28.46,24.60,36.33,0.04,-272.73,-272.73,-49,559,-928,22.2,2.9,-25.3,22.3,3.0,-24.8,5.73,2.46,-26.5,26.9
2012-02-15 01:58:00,0.0,1.9100,0.0009,401.39,0.35,99.1,26.5,138.12,28.45,24.60,36.34,0.04,-272.74,-272.74,-49,560,-928,22.2,3.0,-25.2,22.3,3.0,-24.8,5.73,2.40,-26.7,26.5
2012-02-15 01:59:00,0.0,1.9103,0.0010,401.64,0.36,74.7,35.4,138.13,28.45,24.60,36.33,0.04,-272.74,-272.74,-49,559,-928,22.1,3.0,-25.1,22.2,3.1,-24.7,5.73,2.33,-26.9,26.2
2012-02-15 02:00:00,0.0,1.9099,0.0010,401.72,0.36,56.7,32.7,138.14,28.43,24.61,36.32,0.04,-272.74,-272.73,-49,560,-928,22.1,3.0,-25.1,22.1,3.1,-24.7,5.73,2.30,-27.2,25.8
2012-02-15 02:01:00,0.0,1.9097,0.0010,401.67,0.45,44.8,32.4,138.14,28.41,24.60,36.33,0.04,-272.73,-272.74,-50,559,-929,22.0,3.0,-25.1,22.0,3.1,-24.8,5.73,2.41,-27.4,25.7
2012-02-15 02:02:00,0.0,1.9087,0.0010,401.80,0.47,29.2,25.3,138.15,28.38,24.60,36.33,0.04,-272.74,-272.74,-52,558,-927,21.9,3.0,-25.2,22.0,3.1,-24.8,5.73,2.52,-27.6,25.4
2012-02-15 02:03:00,0.0,1.9076,0.0011,401.74,0.40,14.4,19.7,138.16,28.35,24.60,36.33,0.04,-272.73,-272.74,-49,558,-929,21.8,3.0,-25.2,21.9,3.1,-24.9,5.73,2.45,-27.8,25.2
2012-02-15 02:04:00,0.0,1.9068,0.0009,401.64,0.44,15.2,21.5,138.17,28.31,24.60,36.34,0.04,-272.74,-272.74,-48,558,-929,21.7,3.1,-25.1,21.8,3.1,-24.8,5.73,2.33,-27.8,25.0
2012-02-15 02:05:00,0.0,1.9058,0.0011,401.62,0.45,6.6,13.1,138.17,28.27,24.60,36.33,0.04,-272.74,-272.74,-50,558,-928,21.7,3.1,-25.1,21.7,3.2,-24.8,5.73,2.37,-28.0,25.3
2012-02-15 02:06:00,0.0,1.9052,0.0010,401.67,0.45,12.3,19.2,138.17,28.23,24.60,36.33,0.04,-272.74,-272.74,-49,557,-928,21.7,3.1,-25.0,21.7,3.2,-24.8,5.73,2.44,-28.1,25.6
2012-02-15 02:07:00,0.0,1.9052,0.0011,401.61,0.43,18.3,23.8,138.16,28.20,24.60,36.33,0.04,-272.74,-272.74,-50,557,-928,21.6,3.1,-25.0,21.7,3.2,-24.7,5.73,2.32,-28.0,25.8
2012-02-15 02:08:00,0.0,1.9056,0.0010,401.60,0.32,12.5,21.8,138.16,28.18,24.60,36.34,0.04,-272.74,-272.73,-50,557,-928,21.6,3.1,-25.1,21.7,3.2,-24.7,5.73,2.31,-27.8,25.9
2012-02-15 02:09:00,0.0,1.9061,0.0011,401.62,0.45,23.2,28.5,138.15,28.17,24.60,36.33,0.04,-272.74,-272.74,-49,558,-927,21.6,3.1,-25.2,21.7,3.1,-24.8,5.73,2.49,-27.8,26.1
2012-02-15 02:10:00,0.0,1.9062,0.0011,401.54,0.38,27.5,26.9,138.15,28.16,24.60,36.33,0.04,-272.74,-272.73,-49,557,-928,21.6,3.1,-25.1,21.7,3.2,-24.8,5.73,2.38,-27.8,26.2
2012-02-15 02:11:00,0.0,1.9070,0.0009,401.57,0.47,17.7,24.6,138.14,28.16,24.60,36.33,0.04,-272.73,-272.73,-49,557,-928,21.6,3.1,-25.1,21.8,3.2,-24.8,5.73,2.29,-27.7,26.3
2012-02-15 02:12:00,0.0,1.9072,0.0010,401.65,0.40,32.7,30.9,138.14,28.16,24.60,36.33,0.04,-272.73,-272.74,-49,557,-928,21.6,3.1,-25.1,21.8,3.2,-24.7,5.73,2.44,-27.6,26.4
2012-02-15 02:13:00,0.0,1.9080,0.0010,401.70,0.45,38.3,27.7,138.14,28.16,24.60,36.33,0.04,-272.74,-272.74,-48,557,-928,21.6,3.1,-25.0,21.8,3.2,-24.7,5.73,2.47,-27.5,26.4
2012-02-15 02:14:00,0.0,1.9084,0.0010,401.77,0.42,43.8,33.4,138.13,28.16,24.60,36.32,0.04,-272.74,-272.74,-48,557,-928,21.7,3.1,-25.0,21.8,3.2,-24.6,5.73,2.31,-27.5,26.5
2012-02-15 02:15:00,0.0,1.9086,0.0010,401.53,0.40,50.8,33.5,138.13,28.17,24.60,36.33,0.04,-272.74,-272.74,-48,557,-928,21.7,3.1,-25.0,21.8,3.2,-24.7,5.73,2.34,-27.4,26.5
2012-02-15 02:16:00,0.0,1.9091,0.0009,401.76,0.46,43.6,30.8,138.13,28.17,24.60,36.33,0.04,-272.74,-272.73,-49,557,-927,21.7,3.1,-25.0,21.8,3.2,-24.6,5.73,2.48,-27.3,26.6
2012-02-15 02:17:00,0.0,1.9097,0.0009,401.66,0.42,61.1,30.1,138.13,28.18,24.60,36.33,0.04,-272.73,-272.74,-49,557,-927,21.7,3.1,-24.9,21.9,3.2,-24.6,5.73,2.41,-27.3,26.6